Weather History for Siren, WI

Change the Weather History Date:

Thursday, May 16, 2013

  Actual Average Record
Temperature  
Mean Temperature 59 °F -  
Max Temperature 77 °F - - ()
Min Temperature 41 °F - - ()
Degree Days  
Heating Degree Days 6    
Growing Degree Days 9 (Base 50)    
Moisture  
Dew Point 33 °F    
Average Humidity 38    
Maximum Humidity 81    
Minimum Humidity 17    
Precipitation  
Precipitation 0.00 in - - ()
Sea Level Pressure  
Sea Level Pressure 29.92 in    
Wind  
Wind Speed 3 mph (ENE)    
Max Wind Speed 12 mph    
Max Gust Speed 18 mph    
Visibility 10 miles    
Events      
T = Trace of Precipitation, MM = Missing Value Source: NWS Daily Summary

Daily Weather History Graph

Daily Weather History Graph

Search for Another Location

Airport:

Trip Planner

Search our weather history database for the weather conditions in past years. The results will help you decide how hot, cold, wet, or windy it might be!

Date:

Astronomy

May. 16, 2013 Rise Set
Actual Time 5:36 AM CDT 8:35 PM CDT
Civil Twilight 5:01 AM CDT 9:11 PM CDT
Nautical Twilight 4:16 AM CDT 9:56 PM CDT
Astronomical Twilight 3:22 AM CDT 10:50 PM CDT
Moon 11:16 AM CDT (5/16) 12:52 AM CDT (5/16)
Length of Visible Light 16h 09m
Length of Day
14h 59m
Waxing Crescent, 36% of the Moon is Illuminated
May 16
Waxing Crescent
May 17
First Quarter
May 24
Full
May 31
Last Quarter
Jun 8
New

Hourly Weather History & Observations

Time (CDT) Temp. Windchill Dew Point Humidity Pressure Visibility Wind Dir Wind Speed Gust Speed Precip Events Conditions
12:15 AM 51.8 °F - 37.4 °F 58% 29.84 in 10.0 mi Calm Calm - N/A   Clear
12:35 AM 51.8 °F - 37.4 °F 58% 29.84 in 10.0 mi Calm Calm - N/A   Clear
12:55 AM 48.2 °F - 37.4 °F 66% 29.85 in 10.0 mi Calm Calm - N/A   Clear
1:15 AM 50.0 °F - 37.4 °F 62% 29.85 in 10.0 mi Calm Calm - N/A   Clear
1:35 AM 50.0 °F - 37.4 °F 62% 29.86 in 10.0 mi Calm Calm - N/A   Scattered Clouds
1:55 AM 50.0 °F - 37.4 °F 62% 29.85 in 10.0 mi Calm Calm - N/A   Scattered Clouds
2:15 AM 48.2 °F - 37.4 °F 66% 29.85 in 10.0 mi Calm Calm - N/A   Clear
2:35 AM 46.4 °F 45.2 °F 37.4 °F 71% 29.85 in 10.0 mi NE 3.5 mph - N/A   Clear
2:55 AM 46.4 °F - 35.6 °F 66% 29.86 in 10.0 mi Calm Calm - N/A   Clear
3:15 AM 46.4 °F - 35.6 °F 66% 29.86 in 10.0 mi Calm Calm - N/A   Clear
3:35 AM 46.4 °F - 35.6 °F 66% 29.86 in 10.0 mi Calm Calm - N/A   Clear
3:55 AM 44.6 °F - 35.6 °F 71% 29.87 in 10.0 mi Calm Calm - N/A   Scattered Clouds
4:15 AM 44.6 °F - 35.6 °F 71% 29.87 in 10.0 mi Calm Calm - N/A   Scattered Clouds
4:35 AM 44.6 °F - 35.6 °F 71% 29.88 in 10.0 mi Calm Calm - N/A   Clear
4:55 AM 44.6 °F - 35.6 °F 71% 29.88 in 10.0 mi Calm Calm - N/A   Clear
5:15 AM 41.0 °F - 35.6 °F 81% 29.89 in 10.0 mi Calm Calm - N/A   Clear
5:35 AM 42.8 °F - 35.6 °F 76% 29.90 in 10.0 mi Calm Calm - N/A   Clear
5:55 AM 42.8 °F - 37.4 °F 81% 29.90 in 10.0 mi Calm Calm - N/A   Clear
6:15 AM 42.8 °F - 35.6 °F 76% 29.91 in 10.0 mi Calm Calm - N/A   Clear
6:35 AM 44.6 °F - 37.4 °F 76% 29.92 in 10.0 mi Calm Calm - N/A   Clear
6:55 AM 48.2 °F - 41.0 °F 76% 29.92 in 10.0 mi Calm Calm - N/A   Clear
7:15 AM 53.6 °F - 41.0 °F 62% 29.93 in 10.0 mi Calm Calm - N/A   Clear
7:35 AM 59.0 °F - 39.2 °F 48% 29.94 in 10.0 mi East 5.8 mph - N/A   Clear
7:55 AM 60.8 °F - 39.2 °F 45% 29.94 in 10.0 mi East 4.6 mph - N/A   Clear
8:15 AM 62.6 °F - 39.2 °F 42% 29.94 in 10.0 mi ESE 5.8 mph - N/A   Clear
8:35 AM 62.6 °F - 41.0 °F 45% 29.94 in 10.0 mi SE 4.6 mph - N/A   Clear
8:55 AM 64.4 °F - 41.0 °F 42% 29.94 in 10.0 mi ESE 3.5 mph - N/A   Clear
9:15 AM 68.0 °F - 39.2 °F 35% 29.95 in 10.0 mi NE 4.6 mph - N/A   Clear
9:35 AM 68.0 °F - 37.4 °F 33% 29.95 in 10.0 mi East 5.8 mph - N/A   Clear
9:55 AM 68.0 °F - 37.4 °F 33% 29.95 in 10.0 mi ENE 6.9 mph - N/A   Clear
10:15 AM 69.8 °F - 35.6 °F 28% 29.96 in 10.0 mi ENE 8.1 mph - N/A   Clear
10:35 AM 71.6 °F - 35.6 °F 27% 29.96 in 10.0 mi ESE 5.8 mph - N/A   Clear
10:55 AM 71.6 °F - 33.8 °F 25% 29.96 in 10.0 mi ESE 5.8 mph - N/A   Clear
11:15 AM 71.6 °F - 33.8 °F 25% 29.95 in 10.0 mi ENE 6.9 mph - N/A   Clear
11:35 AM 71.6 °F - 32.0 °F 23% 29.95 in 5.0 mi ENE 4.6 mph - N/A   Haze
11:55 AM 73.4 °F - 32.0 °F 22% 29.95 in 10.0 mi ENE 6.9 mph - N/A   Clear
12:15 PM 74.7 °F - 33.8 °F 22% 29.95 in 10.0 mi ENE 5.8 mph - N/A   Clear
12:35 PM 74.1 °F - 32.2 °F 21% 29.94 in 10.0 mi East 6.9 mph - N/A   Clear
1:35 PM 76.3 °F - 29.8 °F 18% 29.93 in 10.0 mi North 8.1 mph - N/A   Clear
1:55 PM 76.1 °F - 31.3 °F 19% 29.93 in 10.0 mi ENE 9.2 mph 18.4 mph N/A   Clear
2:15 PM 77.2 °F - 30.7 °F 18% 29.93 in 10.0 mi NNE 8.1 mph 16.1 mph N/A   Clear
2:35 PM 76.8 °F - 29.1 °F 17% 29.93 in 10.0 mi East 6.9 mph - N/A   Clear
2:55 PM 77.4 °F - 29.3 °F 17% 29.93 in 10.0 mi NE 10.4 mph 16.1 mph N/A   Clear
3:15 PM 77.2 °F - 29.5 °F 17% 29.93 in 10.0 mi East 8.1 mph 16.1 mph N/A   Clear
3:35 PM 77.0 °F - 29.3 °F 17% 29.92 in 10.0 mi ENE 6.9 mph - N/A   Clear
3:55 PM 77.9 °F - 29.5 °F 17% 29.92 in 10.0 mi NE 9.2 mph 17.3 mph N/A   Clear
4:15 PM 77.0 °F - 29.5 °F 17% 29.92 in 10.0 mi North 9.2 mph - N/A   Clear
4:35 PM 75.9 °F - 29.7 °F 18% 29.93 in 10.0 mi NE 8.1 mph - N/A   Clear
4:55 PM 76.5 °F - 29.3 °F 18% 29.93 in 10.0 mi ENE 6.9 mph - N/A   Clear
5:15 PM 76.5 °F - 29.1 °F 18% 29.93 in 10.0 mi NE 9.2 mph - N/A   Clear
5:35 PM 76.5 °F - 28.0 °F 17% 29.93 in 10.0 mi ENE 10.4 mph 16.1 mph N/A   Clear
5:55 PM 75.2 °F - 28.0 °F 18% 29.94 in 10.0 mi NE 9.2 mph - N/A   Clear
6:15 PM 74.7 °F - 27.7 °F 18% 29.94 in 10.0 mi NE 10.4 mph - N/A   Clear
6:35 PM 73.4 °F - 28.4 °F 19% 29.94 in 10.0 mi ENE 8.1 mph - N/A   Clear
6:55 PM 72.5 °F - 28.6 °F 20% 29.95 in 10.0 mi ENE 8.1 mph 18.4 mph N/A   Clear
7:15 PM 71.6 °F - 28.4 °F 20% 29.95 in 10.0 mi ENE 11.5 mph 18.4 mph N/A   Clear
7:35 PM 70.3 °F - 28.0 °F 21% 29.96 in 10.0 mi ENE 10.4 mph - N/A   Clear
7:55 PM 69.4 °F - 28.0 °F 21% 29.96 in 10.0 mi ENE 8.1 mph - N/A   Clear
8:15 PM 68.7 °F - 26.4 °F 20% 29.96 in 10.0 mi East 9.2 mph - N/A   Clear
8:35 PM 67.6 °F - 25.5 °F 20% 29.97 in 10.0 mi East 9.2 mph - N/A   Clear
8:55 PM 66.6 °F - 24.4 °F 20% 29.97 in 10.0 mi East 5.8 mph - N/A   Clear
9:15 PM 65.5 °F - 24.6 °F 21% 29.97 in 10.0 mi East 8.1 mph - N/A   Clear
9:55 PM 64.2 °F - 24.1 °F 22% 29.97 in 10.0 mi East 6.9 mph - N/A   Clear
10:15 PM 63.5 °F - 24.4 °F 23% 29.97 in 10.0 mi East 6.9 mph - N/A   Clear
10:35 PM 63.1 °F - 24.4 °F 23% 29.97 in 10.0 mi East 5.8 mph - N/A   Clear
10:55 PM 62.6 °F - 25.3 °F 24% 29.97 in 10.0 mi East 6.9 mph - N/A   Clear
11:15 PM 62.6 °F - 24.8 °F 24% 29.97 in 10.0 mi East 5.8 mph - N/A   Clear
11:35 PM 62.6 °F - 24.8 °F 24% 29.97 in 10.0 mi ESE 6.9 mph - N/A   Scattered Clouds
11:55 PM 62.2 °F - 24.6 °F 24% 29.97 in 10.0 mi East 6.9 mph - N/A   Overcast